Location: Alberta Star Party
(51.6612°N, 112.9089°W)
Time: 19:34:49
(UTC-07:00)

Amateur Radio Satellites - All Passes

Search period start: 23 November 2014 19:04
Search period end: 24 November 2014 19:04
Location: Alberta Star Party, 51.6612°N, 112.9089°W

Satellite Date Start Highest point End Downlink Frequencies (MHz)
Time Altitude Azimuth
SHINDAISAT 23 Nov 19:09:03 19:10:38 65° 230° (SW) 19:12:12 437.305
JAS-2 23 Nov 19:12:49 19:17:01 15° 282° (WNW) 19:21:17 435.910
SEEDS 23 Nov 19:13:21 19:15:58 16° 58° (ENE) 19:18:36 437.485
GONETS M04 23 Nov 19:24:34 19:33:22 61° 73° (ENE) 19:42:03
DX 1 23 Nov 19:26:23 19:27:40 11° 51° (NE) 19:28:56 434.975-435.025
AIST 1 23 Nov 19:30:29 19:33:48 21° 86° (E) 19:37:08
CUBESAT XI-V 23 Nov 19:32:28 19:37:12 77° 103° (ESE) 19:41:51 437.345
AAUSAT CUBESAT 2 23 Nov 19:34:58 19:37:58 20° 60° (ENE) 19:40:59 437.432
CANX-2 23 Nov 19:36:25 19:40:06 30° 65° (ENE) 19:43:48 2200.000
MOZHAYETS 4 23 Nov 19:37:15 19:39:46 15° 306° (NW) 19:42:17
HO-68 23 Nov 19:38:35 19:45:33 56° 63° (ENE) 19:52:33 435.675
CUTE-I 23 Nov 19:43:23 19:45:53 13° 275° (W) 19:48:22 437.470
COMPASS 1 23 Nov 19:47:47 19:51:19 27° 64° (ENE) 19:54:52 437.405
DELFI C3 23 Nov 19:53:56 19:56:13 15° 57° (ENE) 19:58:30 145.870
DOVE 4 23 Nov 19:54:00 19:57:42 25° 63° (ENE) 20:01:16 437.250
PCSat 23 Nov 20:07:11 20:11:39 27° 111° (ESE) 20:16:08 145.827
PRISM 23 Nov 20:07:54 20:11:18 24° 299° (WNW) 20:14:41 437.425
AISAT 23 Nov 20:09:50 20:10:49 11° 50° (NE) 20:11:47 437.250
CUTE 1.7 & AOD 2 23 Nov 20:10:52 20:15:00 56° 71° (ENE) 20:19:10 437.475
PHONESAT 2.4 23 Nov 20:10:59 20:12:16 12° 195° (SSW) 20:13:34 2401.200-2431.200
GOMX 1 23 Nov 20:23:17 20:27:56 56° 71° (ENE) 20:32:18 467.674
BEESAT 3 23 Nov 20:23:53 20:25:45 13° 111° (ESE) 20:27:38 437.485
UKube-1 23 Nov 20:26:18 20:30:10 32° 64° (ENE) 20:34:03 .
FUNcube-1 23 Nov 20:26:32 20:29:13 17° 58° (ENE) 20:31:54 145.935
RS-15 23 Nov 20:27:18 20:37:43 46° 342° (NNW) 20:48:22 29.354- 29.394
BEESAT 2 23 Nov 20:36:31 20:38:59 16° 112° (ESE) 20:41:29 435.950
BRITE-PL 23 Nov 20:38:45 20:43:47 83° 256° (WSW) 20:48:25 437.365/2234.400
Oscar 11 23 Nov 20:39:17 20:43:21 42° 68° (ENE) 20:47:26 145.826/435.025
CUBEBUG 2 23 Nov 20:39:39 20:43:15 27° 64° (ENE) 20:46:48 437.445
STRAND 1 23 Nov 20:39:53 20:44:36 38° 296° (WNW) 20:49:16 437.568
UWE-3 23 Nov 20:45:12 20:48:46 27° 64° (ENE) 20:52:18 435.000/436.395/437.385
SEEDS 23 Nov 20:47:07 20:51:19 74° 257° (WSW) 20:55:33 437.485
CINEMA 3 23 Nov 20:47:59 20:52:11 47° 69° (ENE) 20:56:16 145.822/145.860
DX 1 23 Nov 20:58:45 21:03:05 63° 71° (ENE) 21:07:26 434.975-435.025
AIST 2 23 Nov 21:00:01 21:02:19 14° 111° (ESE) 21:04:37 435.215
AIST 1 23 Nov 21:06:51 21:11:09 50° 286° (WNW) 21:15:29
AAUSAT CUBESAT 2 23 Nov 21:09:12 21:13:18 58° 259° (W) 21:17:27 437.432
ESTCUBE 1 23 Nov 21:09:20 21:11:58 15° 55° (NE) 21:14:36 437.505/2401.250
CUBESAT XI-V 23 Nov 21:10:55 21:14:07 19° 303° (WNW) 21:17:19 437.345
CANX-2 23 Nov 21:12:06 21:15:59 35° 264° (W) 21:19:55 2200.000
VELOX 1 23 Nov 21:17:52 21:21:56 35° 65° (ENE) 21:26:02 145.980
GONETS M04 23 Nov 21:21:54 21:29:51 39° 276° (W) 21:37:44
COMPASS 1 23 Nov 21:23:03 21:26:57 38° 263° (W) 21:30:54 437.405
ZACube-1 23 Nov 21:25:15 21:29:21 54° 71° (ENE) 21:33:26 437.345
HO-68 23 Nov 21:26:54 21:33:32 39° 264° (W) 21:40:14 435.675
DELFI C3 23 Nov 21:26:55 21:30:59 81° 256° (WSW) 21:35:07 145.870
HUMSAT D 23 Nov 21:27:27 21:31:16 37° 67° (ENE) 21:35:05 437.325/437.525
DOVE 4 23 Nov 21:30:53 21:35:20 47° 261° (W) 21:39:33 437.250
50 SAT 23 Nov 21:32:59 21:36:41 35° 67° (ENE) 21:40:23 437.505
AISAT 23 Nov 21:42:10 21:46:34 58° 70° (ENE) 21:50:59 437.250
CUTE 1.7 & AOD 2 23 Nov 21:48:20 21:51:18 19° 270° (W) 21:54:19 437.475
PCSat 23 Nov 21:49:17 21:54:41 67° 312° (NW) 22:00:07 145.827
BEESAT 3 23 Nov 21:59:10 22:03:18 82° 130° (SE) 22:07:31 437.485
FUNcube-1 23 Nov 22:00:57 22:05:09 70° 257° (WSW) 22:09:20 145.935
UNISAT 6 23 Nov 22:01:04 22:03:11 13° 87° (E) 22:05:20 437.425
UKube-1 23 Nov 22:02:19 22:06:19 35° 263° (W) 22:10:20 .
GOMX 1 23 Nov 22:02:47 22:06:22 21° 268° (W) 22:09:49 467.674
TISAT 1 23 Nov 22:02:56 22:04:58 13° 55° (NE) 22:07:01 437.305
CUBEBUG 1 23 Nov 22:04:38 22:08:45 38° 66° (ENE) 22:12:54 437.445
SPROUT 23 Nov 22:05:17 22:07:07 13° 54° (NE) 22:08:56 437.525
NANOSAT C BR1 23 Nov 22:09:49 22:10:32 10° 85° (E) 22:11:15 145.865
BEESAT 2 23 Nov 22:12:33 22:16:43 85° 312° (NW) 22:20:57 435.950
CUBEBUG 2 23 Nov 22:15:53 22:19:52 38° 262° (W) 22:23:49 437.445
Oscar 11 23 Nov 22:16:06 22:19:42 25° 267° (W) 22:23:19 145.826/435.025
QB50P1 23 Nov 22:18:16 22:20:14 13° 87° (E) 22:22:12 145.935-145.965
AUBIESAT-1 23 Nov 22:18:37 22:19:08 10° 40° (NE) 22:19:40 437.475
BRITE-PL 23 Nov 22:20:47 22:22:56 13° 273° (W) 22:25:02 437.365/2234.400
M-CUBED/EXP-1 PRIME 23 Nov 22:21:08 22:22:31 11° 42° (NE) 22:23:55 437.505
UWE-3 23 Nov 22:21:15 22:25:14 38° 262° (W) 22:29:10 435.000/436.395/437.385
CINEMA 3 23 Nov 22:26:12 22:29:39 22° 267° (W) 22:33:02 145.822/145.860
ANTELSAT 23 Nov 22:28:27 22:32:01 23° 93° (E) 22:35:36 437.575/2403.000
AIST 2 23 Nov 22:36:02 22:40:18 87° 129° (SE) 22:44:39 435.215
DX 1 23 Nov 22:36:45 22:39:45 18° 270° (W) 22:42:47 434.975-435.025
BUGSAT 1 23 Nov 22:41:10 22:43:58 17° 90° (E) 22:46:43 437.445
POPSAT HIP 1 23 Nov 22:41:45 22:45:01 21° 92° (E) 22:48:16 437.405
CUSAT 1 23 Nov 22:42:21 22:44:15 13° 64° (ENE) 22:46:21 437.405
RS-15 23 Nov 22:42:31 22:52:59 45° 16° (NNE) 23:03:47 29.354- 29.394
ESTCUBE 1 23 Nov 22:43:38 22:48:12 88° 74° (ENE) 22:52:48 437.505/2401.250
VELOX 1 23 Nov 22:54:31 22:58:34 33° 264° (W) 23:02:38 145.980
DANDE 23 Nov 22:57:18 22:59:23 14° 65° (ENE) 23:01:45 436.750
ZACube-1 23 Nov 23:03:05 23:06:05 19° 269° (W) 23:09:05 437.345
HUMSAT D 23 Nov 23:03:41 23:07:12 27° 266° (W) 23:10:43 437.325/437.525
50 SAT 23 Nov 23:08:39 23:12:06 27° 266° (W) 23:15:34 437.505
POLYITAN 1 23 Nov 23:13:19 23:17:21 42° 98° (E) 23:21:22 437.675
QB50P2 23 Nov 23:16:18 23:20:24 45° 99° (E) 23:24:27 145.880/145.840
ITUPSAT 1 23 Nov 23:18:19 23:21:06 16° 53° (NE) 23:23:53 437.325
AISAT 23 Nov 23:20:17 23:23:35 20° 269° (W) 23:26:54 437.250
TIGRISAT 23 Nov 23:23:53 23:28:16 73° 103° (ESE) 23:32:43 435.000
DUCHIFAT 1 23 Nov 23:23:56 23:28:05 52° 100° (E) 23:32:12 145.980
SWISSCUBE 23 Nov 23:29:24 23:32:50 20° 56° (ENE) 23:36:16 437.505
PCSat 23 Nov 23:34:49 23:39:06 23° 335° (NNW) 23:43:24 145.827
TISAT 1 23 Nov 23:35:53 23:40:10 83° 74° (ENE) 23:44:28 437.305
UNISAT 6 23 Nov 23:36:12 23:40:36 86° 286° (WNW) 23:45:06 437.425
SPROUT 23 Nov 23:38:10 23:42:30 76° 73° (ENE) 23:46:50 437.525
BEESAT 3 23 Nov 23:38:33 23:42:01 25° 332° (NNW) 23:45:32 437.485
CUBEBUG 1 23 Nov 23:41:19 23:45:14 30° 265° (W) 23:49:09 437.445
NANOSAT C BR1 23 Nov 23:42:55 23:47:10 81° 104° (ESE) 23:51:23 145.865
AUBIESAT-1 23 Nov 23:49:03 23:53:02 46° 61° (ENE) 23:57:22 437.475
BEESAT 2 23 Nov 23:52:14 23:55:36 23° 334° (NNW) 23:59:00 435.950
QB50P1 23 Nov 23:52:30 23:56:45 82° 286° (WNW) 00:00:58 145.935-145.965
M-CUBED/EXP-1 PRIME 23 Nov 23:52:31 23:56:33 53° 63° (ENE) 00:00:58 437.505
BEESAT 24 Nov 00:00:02 00:04:13 31° 62° (ENE) 00:08:25 436.000
ANTELSAT 24 Nov 00:04:50 00:09:04 48° 291° (WNW) 00:13:22 437.575/2403.000
BUGSAT 1 24 Nov 00:15:48 00:19:52 57° 289° (WNW) 00:23:51 437.445
AIST 2 24 Nov 00:15:55 00:19:29 25° 332° (NNW) 00:23:05 435.215
POPSAT HIP 1 24 Nov 00:17:07 00:21:12 48° 291° (WNW) 00:25:16 437.405
ESTCUBE 1 24 Nov 00:23:28 00:25:45 14° 273° (W) 00:28:03 437.505/2401.250
CUSAT 1 24 Nov 00:23:39 00:27:38 89° 257° (WSW) 00:33:03 437.405
STARS 24 Nov 00:31:39 00:33:11 12° 52° (NE) 00:34:44 437.465
DANDE 24 Nov 00:39:14 00:43:04 76° 259° (WSW) 00:48:16 436.750
Oscar 19 24 Nov 00:41:25 00:43:42 13° 85° (E) 00:45:58 437.125/150
MaSat-1 24 Nov 00:42:39 00:44:57 55° 55° (NE) 00:47:14 437.345
ISS 24 Nov 00:45:19 00:47:28 16° 142° (SE) 00:49:36 145.825
POLYITAN 1 24 Nov 00:49:39 00:53:09 26° 297° (WNW) 00:56:39 437.675
QB50P2 24 Nov 00:52:42 00:56:08 24° 298° (WNW) 00:59:33 145.880/145.840
YUBILEINY 24 Nov 00:53:15 00:56:16 12° 65° (ENE) 00:59:17 435.215
ITUPSAT 1 24 Nov 00:53:27 00:58:16 81° 73° (ENE) 01:03:08 437.325
RS-15 24 Nov 00:55:51 01:07:02 82° 46° (NE) 01:18:41 29.354- 29.394
DUCHIFAT 1 24 Nov 01:00:28 01:03:40 21° 299° (WNW) 01:06:52 145.980
TIGRISAT 24 Nov 01:01:41 01:04:35 18° 302° (WNW) 01:07:31 435.000
KKS-1 24 Nov 01:04:37 01:08:25 28° 63° (ENE) 01:12:13 437.445
SWISSCUBE 24 Nov 01:05:23 01:10:12 75° 256° (WSW) 01:15:03 437.505
UNISAT 6 24 Nov 01:14:28 01:16:48 14° 305° (NW) 01:19:09 437.425
TISAT 1 24 Nov 01:14:33 01:16:36 13° 273° (W) 01:18:40 437.305
SPROUT 24 Nov 01:16:42 01:19:08 15° 272° (W) 01:21:34 437.525
BEESAT 3 24 Nov 01:19:24 01:21:38 14° 355° (N) 01:23:52 437.485
NANOSAT C BR1 24 Nov 01:20:03 01:22:31 15° 303° (WNW) 01:24:59 145.865
PCSat 24 Nov 01:21:14 01:24:31 16° 1° (N) 01:27:47 145.827
AUBIESAT-1 24 Nov 01:24:52 01:28:17 25° 262° (W) 01:31:59 437.475
M-CUBED/EXP-1 PRIME 24 Nov 01:28:47 01:31:59 22° 264° (W) 01:35:25 437.505
ITAMSAT 1 24 Nov 01:29:06 01:31:42 14° 85° (E) 01:34:17 435.822/435.867
QB50P1 24 Nov 01:30:03 01:31:59 13° 305° (NW) 01:33:55 145.935-145.965
BEESAT 2 24 Nov 01:33:07 01:35:20 14° 357° (N) 01:37:34 435.950
BEESAT 24 Nov 01:37:23 01:41:57 43° 262° (W) 01:46:33 436.000
Gurwin Techsat 1B 24 Nov 01:48:07 01:50:21 13° 84° (E) 01:52:35 435.225
AIST 2 24 Nov 01:57:07 01:59:32 14° 356° (N) 02:01:57 435.215
STARS 24 Nov 02:04:31 02:08:53 67° 72° (ENE) 02:13:17 437.465
CUSAT 1 24 Nov 02:08:56 02:10:34 12° 271° (W) 02:12:20 437.405
Oscar 19 24 Nov 02:18:44 02:23:56 77° 104° (ESE) 02:29:06 437.125/150
ISS 24 Nov 02:20:23 02:23:37 56° 161° (SSE) 02:26:52 145.825
ITUPSAT 1 24 Nov 02:33:50 02:36:48 16° 272° (W) 02:39:47 437.325
KKS-1 24 Nov 02:40:42 02:44:56 42° 262° (W) 02:49:11 437.445
YUBILEINY 24 Nov 02:42:28 02:50:52 52° 89° (E) 02:59:16 435.215
SWISSCUBE 24 Nov 02:47:17 02:48:56 12° 275° (W) 02:50:34 437.505
BEESAT 3 24 Nov 02:58:30 03:01:26 18° 19° (NNE) 03:04:21 437.485
PCSat 24 Nov 03:05:28 03:09:53 24° 27° (NNE) 03:14:17 145.827
ITAMSAT 1 24 Nov 03:06:49 03:12:03 81° 105° (ESE) 03:17:14 435.822/435.867
RS-15 24 Nov 03:08:41 03:18:32 38° 251° (WSW) 03:28:46 29.354- 29.394
BEESAT 2 24 Nov 03:12:05 03:15:10 19° 21° (NNE) 03:18:15 435.950
Gurwin Techsat 1B 24 Nov 03:25:57 03:31:18 73° 104° (ESE) 03:36:36 435.225
MOZHAYETS 4 24 Nov 03:29:42 03:33:33 27° 62° (ENE) 03:37:27
AIST 2 24 Nov 03:36:35 03:39:44 19° 20° (NNE) 03:42:53 435.215
HORYU 2 24 Nov 03:42:13 03:46:36 50° 100° (E) 03:50:59 437.375
STARS 24 Nov 03:42:58 03:45:51 17° 270° (W) 03:48:44 437.465
PRISM 24 Nov 03:55:30 03:57:12 12° 53° (NE) 03:58:56 437.425
ISS 24 Nov 03:56:55 04:00:13 88° 360° (N) 04:03:32 145.825
Oscar 19 24 Nov 03:58:57 04:02:46 21° 304° (NW) 04:06:34 437.125/150
AO-7 24 Nov 04:19:40 04:27:31 42° 98° (E) 04:35:20 29.400- 29.500
JAS-2 24 Nov 04:28:14 04:33:32 21° 83° (E) 04:38:25 435.910
BEESAT 3 24 Nov 04:36:26 04:40:34 51° 41° (NE) 04:44:40 437.485
YUBILEINY 24 Nov 04:39:28 04:47:52 47° 293° (WNW) 04:56:16 435.215
SO-50 24 Nov 04:44:22 04:48:35 39° 121° (ESE) 04:52:57 436.795
STRAND 1 24 Nov 04:44:56 04:48:25 19° 54° (NE) 04:51:55 437.568
ITAMSAT 1 24 Nov 04:47:14 04:50:59 21° 305° (NW) 04:54:43 435.822/435.867
PCSat 24 Nov 04:48:44 04:54:12 74° 50° (NE) 04:59:38 145.827
BEESAT 2 24 Nov 04:50:05 04:54:17 60° 44° (NE) 04:58:27 435.950
CUBESAT XI-V 24 Nov 05:05:17 05:08:54 22° 59° (ENE) 05:12:33 437.345
MOZHAYETS 4 24 Nov 05:06:10 05:10:35 47° 262° (W) 05:15:05
Gurwin Techsat 1B 24 Nov 05:06:42 05:10:47 23° 304° (WNW) 05:14:50 435.225
AIST 2 24 Nov 05:14:58 05:19:15 56° 43° (NE) 05:23:29 435.215
HORYU 2 24 Nov 05:19:25 05:23:03 25° 299° (WNW) 05:26:40 437.375
PRISM 24 Nov 05:27:50 05:32:02 75° 72° (ENE) 05:36:18 437.425
Cubesat XI-IV 24 Nov 05:30:43 05:33:29 14° 85° (E) 05:36:14 437.490
AIST 1 24 Nov 05:32:55 05:34:20 11° 57° (ENE) 05:35:45
ISS 24 Nov 05:33:35 05:36:49 54° 200° (SSW) 05:40:03 145.825
O/OREOS (USA 219) 24 Nov 06:06:03 06:09:23 21° 103° (ESE) 06:12:43 437.305
CUTE-I 24 Nov 06:11:29 06:16:06 29° 94° (E) 06:20:41 437.470
JAS-2 24 Nov 06:12:15 06:19:46 87° 106° (ESE) 06:26:23 435.910
AO-7 24 Nov 06:12:29 06:20:39 60° 300° (WNW) 06:28:47 29.400- 29.500
BEESAT 3 24 Nov 06:15:02 06:18:37 28° 242° (WSW) 06:22:10 437.485
STRAND 1 24 Nov 06:21:49 06:26:59 89° 254° (WSW) 06:32:10 437.568
SO-50 24 Nov 06:24:43 06:29:08 45° 323° (NW) 06:33:42 436.795
BEESAT 2 24 Nov 06:28:55 06:32:17 23° 243° (WSW) 06:35:37 435.950
PCSat 24 Nov 06:32:53 06:37:08 24° 251° (WSW) 06:41:21 145.827
CUBESAT XI-V 24 Nov 06:41:18 06:45:59 62° 259° (W) 06:50:42 437.345
GONETS M04 24 Nov 06:42:00 06:45:52 14° 67° (ENE) 06:49:44
YUBILEINY 24 Nov 06:43:12 06:47:33 14° 320° (NW) 06:51:54 435.215
AIST 2 24 Nov 06:54:03 06:57:38 26° 243° (WSW) 07:01:11 435.215
PRISM 24 Nov 07:05:49 07:08:08 14° 272° (W) 07:10:29 437.425
AIST 1 24 Nov 07:08:27 07:12:53 74° 78° (ENE) 07:17:15
Cubesat XI-IV 24 Nov 07:09:05 07:14:28 81° 105° (ESE) 07:19:47 437.490
ISS 24 Nov 07:10:55 07:12:58 16° 219° (SW) 07:15:00 145.825
O/OREOS (USA 219) 24 Nov 07:43:58 07:48:24 59° 302° (WNW) 07:52:51 437.305
CUTE-I 24 Nov 07:51:17 07:56:27 51° 293° (WNW) 08:01:34 437.470
JAS-2 24 Nov 07:57:56 08:03:55 27° 309° (NW) 08:09:26 435.910
STRAND 1 24 Nov 08:03:58 08:06:56 15° 273° (W) 08:09:54 437.568
AO-7 24 Nov 08:06:07 08:11:53 21° 323° (NW) 08:17:40 29.400- 29.500
SO-50 24 Nov 08:07:23 08:10:49 20° 346° (NNW) 08:14:20 436.795
SEEDS 24 Nov 08:28:00 08:30:12 14° 87° (E) 08:32:24 437.485
GONETS M04 24 Nov 08:32:06 08:40:37 57° 90° (E) 08:49:11
BRITE-PL 24 Nov 08:39:04 08:41:56 18° 90° (E) 08:44:48 437.365/2234.400
POLYITAN 1 24 Nov 08:39:49 08:40:58 11° 52° (NE) 08:42:06 437.675
QB50P2 24 Nov 08:42:19 08:43:45 12° 53° (NE) 08:45:11 145.880/145.840
AIST 1 24 Nov 08:47:34 08:49:58 15° 278° (W) 08:52:21
HO-68 24 Nov 08:47:55 08:54:20 34° 94° (E) 09:00:42 435.675
AAUSAT CUBESAT 2 24 Nov 08:48:26 08:51:10 17° 89° (E) 08:53:54 437.432
DUCHIFAT 1 24 Nov 08:49:05 08:51:01 13° 55° (NE) 08:52:58 145.980
Cubesat XI-IV 24 Nov 08:50:04 08:54:00 21° 305° (NW) 08:57:54 437.490
CANX-2 24 Nov 08:52:10 08:55:53 28° 94° (E) 08:59:34 2200.000
TIGRISAT 24 Nov 08:53:23 08:56:17 18° 58° (ENE) 08:59:11 435.000
COMPASS 1 24 Nov 09:01:50 09:05:19 24° 93° (E) 09:08:48 437.405
DELFI C3 24 Nov 09:04:52 09:05:56 11° 86° (E) 09:07:00 145.870
UNISAT 6 24 Nov 09:05:22 09:08:44 23° 61° (ENE) 09:12:06 437.425
NANOSAT C BR1 24 Nov 09:07:01 09:09:54 18° 59° (ENE) 09:12:48 145.865
QB50P1 24 Nov 09:16:13 09:19:27 22° 61° (ENE) 09:22:41 145.935-145.965
DOVE 4 24 Nov 09:24:40 09:28:16 28° 95° (E) 09:31:54 437.250
O/OREOS (USA 219) 24 Nov 09:26:29 09:28:48 14° 325° (NW) 09:31:07 437.305
CUTE 1.7 & AOD 2 24 Nov 09:26:49 09:31:02 54° 100° (E) 09:35:14 437.475
ANTELSAT 24 Nov 09:33:07 09:37:05 39° 67° (ENE) 09:41:05 437.575/2403.000
CUTE-I 24 Nov 09:33:34 09:35:24 12° 314° (NW) 09:37:13 437.470
BUGSAT 1 24 Nov 09:36:31 09:40:07 27° 63° (ENE) 09:43:42 437.445
POPSAT HIP 1 24 Nov 09:40:00 09:43:50 33° 65° (ENE) 09:47:40 437.405
UKube-1 24 Nov 09:44:48 09:48:30 26° 94° (E) 09:52:10 .
FUNcube-1 24 Nov 09:45:19 09:47:49 15° 89° (E) 09:50:20 145.935
SO-50 24 Nov 09:49:37 09:53:01 19° 11° (N) 09:56:28 436.795
Oscar 11 24 Nov 09:57:16 10:01:23 40° 98° (E) 10:05:29 145.826/435.025
GOMX 1 24 Nov 09:57:37 10:01:48 75° 103° (ESE) 10:05:59 467.674
AO-7 24 Nov 10:00:14 10:01:35 11° 350° (N) 10:02:56 29.400- 29.500
CUBEBUG 2 24 Nov 10:01:34 10:05:12 28° 95° (E) 10:08:53 437.445
SEEDS 24 Nov 10:02:20 10:06:37 79° 286° (WNW) 10:10:53 437.485
UWE-3 24 Nov 10:05:49 10:09:25 27° 94° (E) 10:13:04 435.000/436.395/437.385
POLYITAN 1 24 Nov 10:11:54 10:16:08 66° 72° (ENE) 10:20:22 437.675
CINEMA 3 24 Nov 10:14:24 10:18:31 54° 100° (E) 10:22:42 145.822/145.860
QB50P2 24 Nov 10:14:41 10:18:56 70° 72° (ENE) 10:23:11 145.880/145.840
BRITE-PL 24 Nov 10:16:48 10:20:54 54° 289° (WNW) 10:24:56 437.365/2234.400
DX 1 24 Nov 10:18:06 10:22:24 55° 101° (E) 10:26:39 434.975-435.025
DUCHIFAT 1 24 Nov 10:21:58 10:26:14 81° 74° (ENE) 10:30:31 145.980
AAUSAT CUBESAT 2 24 Nov 10:23:06 10:27:18 64° 288° (WNW) 10:31:29 437.432
CANX-2 24 Nov 10:27:57 10:31:56 38° 293° (WNW) 10:35:55 2200.000
TIGRISAT 24 Nov 10:28:24 10:32:38 66° 258° (WSW) 10:36:54 435.000
GONETS M04 24 Nov 10:29:29 10:37:47 44° 294° (WNW) 10:46:10
ESTCUBE 1 24 Nov 10:32:52 10:35:04 13° 86° (E) 10:37:15 437.505/2401.250
HO-68 24 Nov 10:35:25 10:42:30 63° 295° (WNW) 10:49:33 435.675
COMPASS 1 24 Nov 10:37:13 10:41:15 43° 292° (WNW) 10:45:16 437.405
DELFI C3 24 Nov 10:37:45 10:41:55 86° 104° (ESE) 10:46:04 145.870
VELOX 1 24 Nov 10:39:45 10:43:46 32° 96° (E) 10:47:44 145.980
NANOSAT C BR1 24 Nov 10:41:08 10:45:23 67° 258° (WSW) 10:49:38 145.865
UNISAT 6 24 Nov 10:41:09 10:45:18 49° 260° (W) 10:49:28 437.425
HUMSAT D 24 Nov 10:42:21 10:46:08 33° 96° (E) 10:49:56 437.325/437.525
50 SAT 24 Nov 10:43:50 10:47:25 29° 95° (E) 10:50:59 437.505
ZACube-1 24 Nov 10:44:51 10:49:00 55° 101° (E) 10:53:11 437.345
QB50P1 24 Nov 10:50:52 10:55:03 54° 260° (W) 10:59:15 145.935-145.965
YUBILEINY 24 Nov 10:50:55 10:53:04 11° 32° (NNE) 10:55:13 435.215
DOVE 4 24 Nov 11:02:23 11:06:10 35° 293° (WNW) 11:09:59 437.250
CUTE 1.7 & AOD 2 24 Nov 11:03:25 11:06:40 22° 299° (WNW) 11:09:56 437.475
AISAT 24 Nov 11:04:39 11:09:02 56° 101° (E) 11:13:22 437.250
ANTELSAT 24 Nov 11:10:25 11:14:03 27° 266° (W) 11:17:42 437.575/2403.000
BUGSAT 1 24 Nov 11:11:28 11:15:30 40° 262° (W) 11:19:30 437.445
POPSAT HIP 1 24 Nov 11:15:57 11:19:46 32° 264° (W) 11:23:36 437.405
FUNcube-1 24 Nov 11:20:29 11:24:40 69° 287° (WNW) 11:28:54 145.935
UKube-1 24 Nov 11:20:43 11:24:49 41° 293° (WNW) 11:28:53 .
CUBEBUG 1 24 Nov 11:24:38 11:28:42 35° 97° (E) 11:32:42 437.445
SO-50 24 Nov 11:30:17 11:34:49 39° 34° (NE) 11:39:24 436.795
Oscar 11 24 Nov 11:33:44 11:37:27 28° 297° (WNW) 11:41:09 145.826/435.025
GOMX 1 24 Nov 11:37:01 11:39:28 15° 303° (WNW) 11:41:54 467.674
CUBEBUG 2 24 Nov 11:38:09 11:42:01 37° 293° (WNW) 11:45:56 437.445
SEEDS 24 Nov 11:39:54 11:41:46 13° 305° (NW) 11:43:38 437.485
UWE-3 24 Nov 11:42:12 11:46:06 38° 293° (WNW) 11:50:02 435.000/436.395/437.385
AO-7 24 Nov 11:47:49 11:50:45 12° 18° (NNE) 11:53:42 29.400- 29.500
POLYITAN 1 24 Nov 11:49:51 11:52:33 16° 271° (W) 11:55:15 437.675
CINEMA 3 24 Nov 11:52:23 11:55:28 20° 299° (WNW) 11:58:35 145.822/145.860
QB50P2 24 Nov 11:52:48 11:55:21 15° 271° (W) 11:57:55 145.880/145.840
DX 1 24 Nov 11:54:59 11:58:20 22° 300° (WNW) 12:01:41 434.975-435.025
DUCHIFAT 1 24 Nov 12:00:36 12:02:42 13° 273° (W) 12:04:48 145.980
AAUSAT CUBESAT 2 24 Nov 12:01:22 12:02:11 11° 307° (NW) 12:03:00 437.432
Oscar 19 24 Nov 12:02:43 12:07:14 33° 62° (ENE) 12:11:46 437.125/150
ESTCUBE 1 24 Nov 12:08:02 12:12:38 89° 285° (WNW) 12:17:11 437.505/2401.250
DELFI C3 24 Nov 12:14:28 12:16:40 14° 303° (WNW) 12:18:52 145.870
VELOX 1 24 Nov 12:16:21 12:20:23 35° 295° (WNW) 12:24:23 145.980
HUMSAT D 24 Nov 12:18:17 12:21:56 30° 295° (WNW) 12:25:36 437.325/437.525
50 SAT 24 Nov 12:19:07 12:22:47 33° 294° (WNW) 12:26:26 437.505
ZACube-1 24 Nov 12:21:58 12:25:05 21° 299° (WNW) 12:28:14 437.345
HO-68 24 Nov 12:24:13 12:28:58 19° 318° (NW) 12:33:42 435.675
GONETS M04 24 Nov 12:33:42 12:37:42 14° 323° (NW) 12:41:43
AISAT 24 Nov 12:41:56 12:45:21 22° 300° (WNW) 12:48:46 437.250
YUBILEINY 24 Nov 12:45:31 12:53:25 36° 62° (ENE) 13:01:13 435.215
ITUPSAT 1 24 Nov 12:50:14 12:52:54 15° 87° (E) 12:55:33 437.325
ITAMSAT 1 24 Nov 12:51:33 12:56:18 37° 63° (ENE) 13:01:04 435.822/435.867
TISAT 1 24 Nov 12:51:35 12:55:49 72° 103° (ESE) 13:00:01 437.305
SPROUT 24 Nov 12:55:47 13:00:06 72° 103° (ESE) 13:04:22 437.525
FUNcube-1 24 Nov 12:59:09 13:00:17 11° 307° (NW) 13:01:26 145.935
CUBEBUG 1 24 Nov 13:01:09 13:05:02 31° 296° (WNW) 13:08:53 437.445
SWISSCUBE 24 Nov 13:01:18 13:04:48 20° 90° (E) 13:08:17 437.505
AUBIESAT-1 24 Nov 13:01:50 13:05:25 20° 95° (E) 13:08:59 437.475
M-CUBED/EXP-1 PRIME 24 Nov 13:05:35 13:09:30 23° 97° (E) 13:13:23 437.505
SO-50 24 Nov 13:10:51 13:15:34 52° 235° (SW) 13:20:19 436.795
HORYU 2 24 Nov 13:11:55 13:14:27 15° 55° (NE) 13:17:00 437.375
Gurwin Techsat 1B 24 Nov 13:13:31 13:18:16 34° 62° (ENE) 13:23:02 435.225
BEESAT 24 Nov 13:32:14 13:36:36 33° 96° (E) 13:40:55 436.000
AO-7 24 Nov 13:34:09 13:40:51 29° 44° (NE) 13:47:36 29.400- 29.500
Oscar 19 24 Nov 13:41:35 13:46:28 45° 262° (W) 13:51:23 437.125/150
CUSAT 1 24 Nov 13:43:40 13:46:18 67° 100° (E) 13:48:55 437.405
ESTCUBE 1 24 Nov 13:46:13 13:48:53 16° 305° (NW) 13:51:32 437.505/2401.250
DANDE 24 Nov 14:01:56 14:04:39 82° 283° (WNW) 14:07:16 436.750
ITUPSAT 1 24 Nov 14:26:38 14:31:30 88° 286° (WNW) 14:36:19 437.325
KKS-1 24 Nov 14:26:43 14:30:27 26° 94° (E) 14:34:10 437.445
TISAT 1 24 Nov 14:28:29 14:31:11 17° 303° (WNW) 14:33:53 437.305
O/OREOS (USA 219) 24 Nov 14:30:30 14:33:50 20° 42° (NE) 14:37:08 437.305
ITAMSAT 1 24 Nov 14:30:52 14:35:46 41° 262° (W) 14:40:42 435.822/435.867
SPROUT 24 Nov 14:32:54 14:35:43 17° 302° (WNW) 14:38:32 437.525
AUBIESAT-1 24 Nov 14:35:58 14:40:52 73° 294° (WNW) 14:45:45 437.475
SWISSCUBE 24 Nov 14:38:21 14:43:08 66° 289° (WNW) 14:47:53 437.505
M-CUBED/EXP-1 PRIME 24 Nov 14:40:01 14:44:53 64° 295° (WNW) 14:49:45 437.505
YUBILEINY 24 Nov 14:42:17 14:50:56 69° 266° (W) 14:59:30 435.215
JAS-2 24 Nov 14:45:47 14:51:34 24° 48° (NE) 14:57:21 435.910
HORYU 2 24 Nov 14:46:05 14:50:31 90° 65° (ENE) 14:55:00 437.375
Gurwin Techsat 1B 24 Nov 14:53:03 14:58:08 45° 262° (W) 15:03:15 435.225
BEESAT 24 Nov 15:10:03 15:14:31 39° 295° (WNW) 15:18:57 436.000
AO-7 24 Nov 15:24:22 15:32:41 85° 67° (ENE) 15:41:04 29.400- 29.500
STARS 24 Nov 15:25:41 15:30:04 63° 102° (ESE) 15:34:25 437.465
RS-15 24 Nov 15:29:04 15:37:17 26° 102° (ESE) 15:45:29 29.354- 29.394
MaSat-1 24 Nov 15:50:46 15:53:16 26° 116° (ESE) 15:55:36 437.345
CUTE-I 24 Nov 16:01:25 16:04:44 17° 51° (NE) 16:08:03 437.470
KKS-1 24 Nov 16:03:04 16:07:18 44° 293° (WNW) 16:11:30 437.445
ITUPSAT 1 24 Nov 16:05:45 16:08:44 17° 306° (NW) 16:11:43 437.325
O/OREOS (USA 219) 24 Nov 16:09:19 16:13:48 80° 243° (WSW) 16:18:17 437.305
AUBIESAT-1 24 Nov 16:12:08 16:15:07 16° 313° (NW) 16:18:07 437.475
M-CUBED/EXP-1 PRIME 24 Nov 16:16:26 16:19:07 15° 314° (NW) 16:21:48 437.505
SWISSCUBE 24 Nov 16:18:01 16:20:08 13° 309° (NW) 16:22:15 437.505
HORYU 2 24 Nov 16:25:56 16:27:53 13° 273° (W) 16:29:51 437.375
JAS-2 24 Nov 16:27:45 16:35:25 73° 70° (ENE) 16:43:16 435.910
VERMONT LUNAR 24 Nov 16:39:53 16:41:15 12° 167° (SSE) 16:42:37 437.305
GONETS M04 24 Nov 16:40:07 16:43:20 12° 34° (NE) 16:46:32
YUBILEINY 24 Nov 16:40:57 16:46:02 17° 290° (WNW) 16:51:06 435.215
MOZHAYETS 4 24 Nov 16:56:02 17:00:08 29° 94° (E) 17:04:13
Cubesat XI-IV 24 Nov 16:57:18 17:02:16 40° 64° (ENE) 17:07:14 437.490
STARS 24 Nov 17:02:59 17:06:10 20° 301° (WNW) 17:09:20 437.465
AO-7 24 Nov 17:19:41 17:26:27 27° 269° (W) 17:33:18 29.400- 29.500
MaSat-1 24 Nov 17:25:42 17:27:53 20° 312° (NW) 17:29:56 437.345
RS-15 24 Nov 17:36:58 17:47:53 80° 127° (SE) 17:58:54 29.354- 29.394
CUTE-I 24 Nov 17:38:40 17:44:01 78° 72° (ENE) 17:49:24 437.470
HO-68 24 Nov 17:39:07 17:42:44 15° 36° (NE) 17:46:21 435.675
O/OREOS (USA 219) 24 Nov 17:51:01 17:52:25 11° 263° (W) 17:53:49 437.305
PHONESAT 2.4 24 Nov 17:59:37 18:01:47 15° 177° (S) 18:03:56 2401.200-2431.200
JAS-2 24 Nov 18:14:16 18:21:01 33° 270° (W) 18:27:56 435.910
VERMONT LUNAR 24 Nov 18:16:50 18:18:50 14° 184° (S) 18:20:51 437.305
STRAND 1 24 Nov 18:27:39 18:31:30 21° 90° (E) 18:35:19 437.568
MOZHAYETS 4 24 Nov 18:33:07 18:37:30 42° 293° (WNW) 18:41:52
CUBESAT XI-V 24 Nov 18:33:16 18:37:04 24° 91° (E) 18:40:48 437.345
GONETS M04 24 Nov 18:35:20 18:43:31 39° 64° (ENE) 18:51:37
Cubesat XI-IV 24 Nov 18:37:23 18:42:23 39° 263° (W) 18:47:25 437.490
PRISM 24 Nov 18:41:20 18:45:34 59° 102° (ESE) 18:49:45 437.425
CUTE 1.7 & AOD 2 24 Nov 18:52:24 18:54:07 12° 54° (NE) 18:55:51 437.475
